Location: Edmonton
(53.5500°N, 113.5000°W)
Time: 03:48:06
(UTC-07:00)

Daily predictions for brighter satellites

Satellite Brightness Start Highest point End
(mag) Time Altitude Azimuth Time Altitude Azimuth Time Altitude Azimuth
USA 229 4.5 04:16:24 48° E 04:16:24 48° E 04:21:30 10° ESE
Cosmos 2227 Rocket 4.5 04:14:08 16° ESE 04:15:56 19° E 04:19:45 10° ENE
NOSS 3-1 (A) 4.5 04:27:12 49° NNE 04:27:20 49° NNE 04:34:57 10° E
ATLAS 2AS CENTAUR R/B 3.8 04:34:41 41° N 04:35:21 42° N 04:42:55 10° ENE
Tsikada Rocket 4.4 04:47:00 10° N 04:53:22 60° ENE 04:59:39 10° SSE
Cosmos 2219 4.0 04:57:23 47° NNE 04:57:23 47° NNE 05:01:25 10° NNE
Cosmos 1818 4.3 05:05:23 46° SE 05:05:39 47° ESE 05:10:53 10° NE
ADEOS Rocket 4.0 04:59:41 10° N 05:05:17 45° NNW 05:05:17 45° NNW
ATLAS CENTAUR R/B 3.7 05:10:36 28° ENE 05:10:36 28° ENE 05:13:48 10° ENE
NOSS 3-1 (C) 4.0 05:08:25 55° NNW 05:10:05 70° NE 05:18:08 10° ESE
USA 234 3.1 05:04:53 10° ESE 05:11:29 87° SSW 05:11:49 82° W
Cosmos 2061 Rocket 3.9 05:18:00 70° NNW 05:18:00 70° NNW 05:23:32 10° N
ADEOS II 3.4 05:12:06 10° NNE 05:14:46 31° N 05:14:46 31° N
Feng Yun 1-1 Rocket 4.5 05:12:05 10° NNE 05:17:30 65° ESE 05:19:22 40° S
Cosmos 1802 Rocket 3.9 05:26:34 70° SW 05:27:12 78° WNW 05:33:40 10° N
Cosmos 2237 Rocket 3.9 05:31:31 20° S 05:31:31 20° S 05:33:15 10° S
Cosmos 1725 Rocket 4.2 05:23:24 10° S 05:29:37 72° E 05:35:55 10° NNE
SL-16 R/B 2.0 05:30:40 84° SW 05:30:40 84° SW 05:36:17 10° SSE
Cosmos 1459 Rocket 4.1 05:33:37 54° NNW 05:33:37 54° NNW 05:38:48 10° N
ATLAS CENTAUR R/B 3.1 05:37:00 25° NNE 05:37:00 25° NNE 05:39:09 10° NE
NOAA 6 4.5 05:31:40 10° NNE 05:36:50 62° ESE 05:41:59 10° S
SL-8 R/B 4.3 05:42:28 46° S 05:42:28 46° S 05:46:51 10° ESE
Cosmos 489 Rocket 4.3 05:44:11 46° SW 05:46:13 78° WNW 05:52:34 10° NNE
SL-14 R/B 4.0 05:45:43 40° NNE 05:46:47 52° ENE 05:50:46 10° SSE
Cosmos 2297 Rocket 2.7 05:41:55 12° SSW 05:47:04 60° ESE 05:52:38 10° NE
SeaSat 1 2.5 05:43:12 10° NNE 05:47:41 60° NNW 05:47:41 60° NNW
Cosmos 1486 Rocket 4.4 05:50:10 48° NNW 05:50:10 48° NNW 05:54:36 10° NNE
Cosmos-2242 3.2 05:50:54 62° N 05:50:54 62° N 05:54:37 10° N
SL-08 R/B 4.3 05:44:03 10° SSW 05:50:10 74° WNW 05:56:18 10° N
Cosmos 773 Rocket 4.5 05:48:23 27° NNW 05:51:08 60° ENE 05:56:22 10° SE
BREEZE-M DEB (TANK) 3.6 05:52:16 39° SE 05:52:16 39° SE 05:54:02 10° ESE
CZ-4 R/B 4.3 05:49:18 10° NE 05:52:08 18° E 05:54:58 10° SE
Cosmos 1503 Rocket 3.8 05:55:47 55° SW 05:56:53 77° WNW 06:02:06 10° NNE
Cosmos 2173 Rocket 4.3 05:57:56 44° WNW 05:57:56 44° WNW 06:03:25 10° N
Cosmos 2227 Rocket 2.1 05:56:03 27° SSW 05:59:13 88° ESE 06:04:56 10° NNE
Aureole 2 Rocket 4.5 06:02:27 24° SSW 06:02:27 24° SSW 06:04:20 10° S
Meteor 1-28 Rocket 4.0 05:57:55 10° S 06:00:25 40° S 06:00:25 40° S
USA 229 DEB 4.1 06:03:48 40° W 06:05:00 43° WSW 06:11:41 10° S
USA 229 4.1 06:03:53 40° W 06:05:05 43° WSW 06:11:48 10° S
CZ-4B R/B 4.4 06:02:20 10° N 06:04:56 24° NNW 06:04:56 24° NNW
IDEFIX/ARIANE 42P 4.5 06:06:03 10° NNE 06:10:43 31° E 06:15:22 10° SSE
Cosmos 2082 Rocket 4.3 06:09:01 12° NNW 06:10:53 14° N 06:13:41 10° NNE
Cosmos 2016 Rocket 4.2 06:11:48 31° WSW 06:14:20 46° WNW 06:20:24 10° N
Meteor 1-4 Rocket 3.0 06:11:11 10° S 06:14:53 65° E 06:18:40 10° NNE
Cosmos 1943 3.9 06:10:56 17° NNW 06:15:10 51° NE 06:20:43 10° SE
Cosmos 1626 3.5 06:14:51 10° N 06:18:24 38° ENE 06:21:55 10° SE
NOSS 3-1 (A) 3.9 06:14:39 29° NW 06:18:55 80° SW 06:27:07 10° SE
COSMO-SKYMED 1 4.0 06:15:18 10° SSW 06:17:20 24° SSW 06:17:20 24° SSW
Cosmos 1842 Rocket 3.5 06:15:12 10° S 06:19:32 88° E 06:23:57 10° NNE
Cosmos 1733 3.1 06:19:44 64° W 06:19:53 64° WNW 06:23:43 10° N
Cosmos 2233 Rocket 3.9 06:15:07 10° SSW 06:21:23 81° W 06:27:45 10° N
Cosmos 1470 3.0 06:22:56 48° NW 06:22:56 48° NW 06:26:07 10° N
Cosmos 2058 2.8 06:20:02 20° N 06:22:49 90° E 06:26:56 10° S
Cosmos 1805 Rocket 4.1 06:19:13 10° N 06:23:38 60° ENE 06:28:00 10° SSE
Cosmos 1328 3.9 06:26:07 50° W 06:26:07 50° W 06:29:54 10° S
Cosmos 2082 3.6 06:22:04 16° SW 06:26:44 71° NW 06:32:30 10° NNE
ATLAS 2AS CENTAUR R/B 3.4 06:22:07 21° NW 06:27:51 62° NNE 06:35:39 10° ESE
ISS -1.3 06:28:35 18° SSW 06:28:35 18° SSW 06:30:23 10° SSE
Okean-O 3.9 06:26:16 10° N 06:28:35 24° NNW 06:28:35 24° NNW
Cosmos 1500 Rocket 3.9 06:31:10 40° WNW 06:31:37 41° W 06:35:48 10° SSW
Cosmos 1538 Rocket 4.2 06:31:00 27° NW 06:33:43 52° WSW 06:38:54 10° S
Cosmos 1603 3.6 06:30:38 23° NW 06:34:17 73° WSW 06:39:53 10° SSE
Cosmos 2151 3.0 06:33:17 27° NNW 06:35:18 54° W 06:39:25 10° S
ERBS 3.2 06:36:35 33° SW 06:36:41 33° SW 06:39:48 10° SSE
Cosmos 1354 Rocket 4.4 06:37:44 28° W 06:39:48 40° NW 06:44:46 10° NNE
Cosmos 2219 4.2 06:39:20 26° WNW 06:40:30 28° NW 06:45:26 10° NNE
Meteor 1-29 4.0 06:37:40 10° SE 06:41:02 46° ENE 06:44:25 10° N
Cosmos 923 Rocket 3.9 06:36:59 16° NNW 06:41:16 85° WSW 06:46:31 10° SSE
Nadezhda 4 Rocket 4.4 06:36:01 10° N 06:42:21 66° ENE 06:48:37 10° SSE
Helios 1B rocket 2.6 06:41:38 10° SSE 06:45:43 72° ENE 06:49:49 10° NNW
Ariane Rocket 2.9 06:42:49 10° NNE 06:47:56 73° WNW 06:53:00 10° SSW
Cosmos 1356 Rocket 3.3 06:44:47 10° NNW 06:48:52 88° W 06:52:59 10° S
Cosmos 1818 3.8 06:46:04 23° WSW 06:49:16 51° NW 06:54:37 10° NE
Cosmos 1680 Rocket 3.5 06:46:01 12° NNW 06:51:00 89° WSW 06:56:19 10° SSE
Cosmos 1633 Rocket 3.4 06:48:10 10° N 06:52:33 68° ENE 06:56:53 10° SSE
Sich 1 3.2 06:48:43 10° N 06:53:09 77° ENE 06:57:30 10° SSE
USA 234 3.9 06:48:55 10° SSE 06:55:01 40° SW 06:59:11 20° WNW
ADEOS II 3.6 06:52:58 10° N 06:55:43 17° NW 06:55:43 17° NW
Cosmos 220 Rocket 3.9 06:55:17 10° SSW 06:59:42 71° WNW 07:04:05 10° NNE
Genesis I 3.9 06:58:21 26° WNW 06:59:52 37° SW 07:03:30 10° SSE
Cosmos 1703 3.2 06:56:53 10° NNW 07:00:46 60° W 07:04:37 10° S
NOSS 3-1 (C) 4.4 06:55:50 19° WNW 07:00:57 46° WSW 07:08:37 10° SSE
SJ-12 3.9 06:59:39 10° NNE 07:03:47 84° ESE 07:07:53 10° SSW
CSL-04 Rocket 3.6 07:00:24 10° NNE 07:05:43 65° WNW 07:10:56 10° SSW
Cosmos 1340 Rocket 3.5 07:05:30 18° NW 07:07:45 32° W 07:11:16 10° SSW
YAOGAN 1 3.0 07:03:56 10° NNE 07:08:16 66° ESE 07:12:35 10° S
Cosmos 1464 Rocket 4.0 07:02:40 10° SSW 07:09:01 77° WNW 07:15:20 10° N
SL-16 R/B 3.6 07:12:36 17° W 07:13:54 18° W 07:17:34 10° SW
ATLAS CENTAUR R/B 3.1 07:13:18 15° NW 07:15:14 19° N 07:18:16 10° NE
PAYLOAD A 3.9 07:11:16 10° N 07:16:24 65° WNW 07:21:19 10° SSW
Iridium 4 Rocket 4.0 07:14:23 10° N 07:18:26 48° E 07:22:37 10° SSE
Cosmos 1666 Rocket 3.7 07:17:30 10° NNW 07:21:52 56° W 07:26:14 10° S
IRS-1A Rocket 4.4 07:17:46 10° NNE 07:23:41 71° WNW 07:29:30 10° SSW
Cosmos 2112 Rocket 4.1 07:19:40 10° NNW 07:24:55 59° WSW 07:30:09 10° S
SeaSat 1 3.8 07:21:24 10° NNE 07:24:55 20° NNW 07:27:29 14° WNW
CZ-4 R/B 1.4 07:23:35 10° N 07:27:32 58° WNW 07:31:31 10° SSW
CZ-2C R/B 2.2 07:23:37 10° N 07:28:16 69° WNW 07:32:48 10° SSW
Cosmos 1271 Rocket 3.2 07:25:55 10° SW 07:29:29 37° WNW 07:33:03 10° N
Cosmos 1484 Rocket 3.3 07:25:34 10° NNE 07:29:37 68° ESE 07:33:36 10° S
Coronas F rocket 1.4 07:27:50 12° NNW 07:29:51 41° W 07:32:09 10° S
Cosmos 2297 Rocket 2.8 07:26:14 10° WSW 07:31:26 36° NW 07:36:40 10° NNE
Cosmos 968 Rocket 3.7 07:27:09 10° SW 07:32:15 48° NW 07:37:23 10° NNE
Aureole 1 4.4 07:29:38 10° SSW 07:32:49 82° WNW 07:36:46 10° NNE
Cosmos 1933 Rocket 3.7 07:29:02 10° N 07:33:33 82° E 07:38:00 10° SSE
AQUARIUS 4.2 07:33:09 10° N 07:37:38 62° WNW 07:42:04 10° SSW
SPOT 3 Rocket 3.5 07:34:23 10° NNE 07:39:36 80° WNW 07:44:49 10° SSW
Cosmos 2221 3.0 07:36:33 10° SW 07:40:37 39° WNW 07:44:42 10° N
Cosmos 2227 Rocket 3.1 07:39:13 10° W 07:44:01 27° NW 07:48:50 10° NNE
CZ-4 R/B 4.4 07:41:45 10° N 07:45:52 68° WNW 07:49:57 10° SSW
SMAP 3.2 07:45:16 10° N 07:49:49 52° WNW 07:54:19 10° SW
Cosmos 1184 Rocket 4.1 07:47:28 10° NW 07:50:08 22° W 07:52:46 10° SW
Meteor 1-4 Rocket 4.2 07:48:09 10° W 07:50:31 16° WNW 07:52:54 10° NNW
IDEFIX/ARIANE 42P 2.8 07:45:29 10° N 07:50:35 51° WNW 07:55:40 10° SW
COSMOS 2441 4.3 07:47:44 10° N 07:52:33 71° WNW 07:57:18 10° SSW
Cosmos 2228 Rocket 3.1 07:48:58 10° SSW 07:53:25 84° WNW 07:57:51 10° N
Cosmos 1626 3.4 07:50:40 10° NW 07:53:35 22° W 07:56:29 10° SW
Cosmos 1470 Rocket 3.6 07:49:54 10° NNW 07:54:10 60° W 07:58:25 10° S
In-Cosmos 22 Rocket 4.4 07:49:03 10° NNW 07:54:28 77° ENE 07:59:59 10° SSE
Cosmos 2082 Rocket 4.0 07:52:51 10° NNW 07:57:16 22° NNE 08:01:40 10° E
Cosmos 1943 3.9 07:53:53 10° NW 07:59:07 38° WSW 08:04:20 10° S
Cosmos 1777 Rocket 4.2 07:54:20 10° SW 07:59:25 51° WNW 08:04:32 10° NNE
MSX 3.9 07:55:52 10° NNE 08:01:35 66° WNW 08:07:17 10° SSW
Alouette 2 Rocket 3.2 08:01:45 10° NNW 08:05:31 65° WSW 08:09:04 10° S
COSMOS 2406 3.5 08:00:34 10° NNW 08:06:21 73° NE 08:12:08 10° SE
Cosmos 1634 Rocket 4.1 08:00:12 10° S 08:06:31 90° SW 08:12:51 10° N
NOSS 3-4 (A) 4.2 08:01:05 10° NW 08:07:42 54° NNE 08:14:46 10° ESE
NOSS 3-4 (C) 4.2 08:01:12 10° NW 08:07:49 54° NNE 08:14:52 10° ESE
